EW5678 Weather Reports


time (UTC)temp
F
wind
direction
speed
knots
gust
knots
rain 1hr
in
rain 24hr
in
rain mn
in
humidity
%
barometer
mb
20260504194447 63 198 10.4 20.9 0.00 0.00 0.00 53 999.6
20260504192647 63 217 9.6 20.9 0.00 0.00 0.00 52 999.7
20260504191747 63 214 9.6 20.0 0.00 0.00 0.00 52 999.8
20260504190847 63 204 9.6 20.0 0.00 0.00 0.00 53 999.8
20260504185047 64 198 8.7 17.4 0.00 0.00 0.00 51 1000.0
20260504184147 64 220 9.6 18.2 0.00 0.00 0.00 52 1000.1
20260504183247 64 209 8.7 17.4 0.00 0.00 0.00 51 1000.2
20260504182347 63 214 10.4 22.6 0.00 0.00 0.00 52 1000.4
20260504180547 63 215 8.7 19.1 0.00 0.00 0.00 52 1000.5
20260504175647 63 219 8.7 19.1 0.00 0.00 0.00 52 1000.7
20260504174746 63 208 8.7 17.4 0.00 0.00 0.00 52 1000.7
20260504173847 62 219 11.3 20.0 0.00 0.00 0.00 51 1000.7
20260504172946 62 223 13.0 21.7 0.00 0.00 0.00 49 1000.7
20260504172046 62 212 13.0 22.6 0.00 0.00 0.00 47 1000.8
20260504171146 63 214 10.4 24.3 0.00 0.00 0.00 46 1000.8
20260504170246 62 227 13.0 26.1 0.00 0.00 0.00 47 1000.8
20260504150546 62 241 10.4 19.1 0.00 0.00 0.00 42 1002.2
20260504141146 60 226 7.8 17.4 0.00 0.00 0.00 45 1002.5
20260504140246 60 228 9.6 16.5 0.00 0.00 0.00 47 1002.5
20260504110245 51 240 12.2 20.9 0.00 0.00 0.00 58 1003.1
20260504080244 51 256 8.7 16.5 0.00 0.00 0.00 52 1002.1
20260504050244 52 243 11.3 16.5 0.00 0.00 0.00 53 1001.5
20260504045344 52 250 10.4 15.6 0.00 0.00 0.00 51 1001.4
20260504044444 53 246 11.3 15.6 0.00 0.00 0.00 48 1001.4
20260504043543 53 251 8.7 15.6 0.00 0.00 0.00 46 1001.5
20260504042643 53 265 7.8 13.9 0.00 0.00 0.00 44 1001.4
20260504041743 53 253 8.7 13.9 0.00 0.00 0.00 44 1001.4
20260504040843 53 248 7.8 14.8 0.00 0.00 0.00 43 1001.5
20260504035943 54 242 7.8 14.8 0.00 0.00 0.00 42 1001.4
20260504035044 55 273 7.8 11.3 0.00 0.00 0.00 37 1001.4
20260504033243 55 291 7.0 11.3 0.00 0.00 0.00 38 1001.3
20260504032343 55 286 7.8 12.2 0.00 0.00 0.00 39 1001.3
20260504031443 54 290 7.0 11.3 0.00 0.00 0.00 39 1001.4
20260504030543 54 266 6.1 11.3 0.00 0.00 0.00 38 1001.4
20260504025643 55 287 7.0 11.3 0.00 0.00 0.00 38 1001.3
20260504023843 56 281 13.0 16.5 0.00 0.00 0.00 36 1001.3
20260504022943 56 284 13.0 15.6 0.00 0.00 0.00 35 1001.3
20260504022043 56 280 11.3 13.9 0.00 0.00 0.00 35 1001.3
20260504021143 56 281 11.3 13.0 0.00 0.00 0.00 36 1001.3
20260504020243 56 279 11.3 13.0 0.00 0.00 0.00 36 1001.3
20260504015343 55 279 11.3 13.0 0.00 0.00 0.00 36 1001.3
20260504014443 55 278 8.7 12.2 0.00 0.00 0.00 37 1001.3
20260504013543 55 277 8.7 11.3 0.00 0.00 0.00 37 1001.2
20260504012643 55 279 9.6 11.3 0.00 0.00 0.00 37 1001.0
20260504011743 55 268 6.1 10.4 0.00 0.00 0.00 38 1001.0
20260504010843 55 276 7.8 11.3 0.00 0.00 0.00 37 1001.0
20260504005943 55 275 8.7 11.3 0.00 0.00 0.00 37 1000.8
20260504005042 55 276 7.8 10.4 0.00 0.00 0.00 36 1000.7
20260504004143 55 279 9.6 11.3 0.00 0.00 0.00 36 1000.6
20260504003242 55 278 9.6 11.3 0.00 0.00 0.00 36 1000.5
20260504002343 55 279 10.4 13.0 0.00 0.00 0.00 36 1000.3
20260504001443 55 280 10.4 13.0 0.00 0.00 0.00 36 1000.2
20260504000543 55 279 8.7 12.2 0.00 0.00 0.00 37 1000.0
20260503234742 54 288 12.2 16.5 0.00 0.00 0.00 42 999.8
20260503233842 54 289 12.2 17.4 0.00 0.00 0.00 42 999.7
20260503232942 54 291 12.2 17.4 0.00 0.00 0.00 43 999.7
20260503232042 54 289 12.2 19.1 0.00 0.00 0.00 42 999.5
20260503231142 55 292 14.8 21.7 0.00 0.00 0.00 42 999.4
20260503230242 55 296 14.8 21.7 0.00 0.00 0.00 41 999.4
20260503224442 54 297 13.0 20.9 0.00 0.00 0.00 45 999.4
20260503222642 55 299 11.3 20.0 0.00 0.00 0.00 46 999.3
20260503221742 55 301 13.0 20.0 0.00 0.00 0.00 40 999.2
20260503220842 54 300 13.9 21.7 0.00 0.00 0.00 40 999.3
20260503215042 54 302 16.5 25.2 0.00 0.00 0.00 40 999.2
20260503214142 54 307 16.5 24.3 0.00 0.00 0.00 40 999.2
20260503213242 54 304 13.0 19.1 0.00 0.00 0.00 43 999.1
20260503212342 54 304 13.0 20.9 0.00 0.00 0.00 50 999.1
20260503211442 54 301 12.2 20.0 0.00 0.00 0.00 48 999.1
20260503210542 53 299 19.1 23.5 0.00 0.00 0.00 47 999.0
20260503203842 53 301 13.9 23.5 0.00 0.00 0.00 41 999.0
20260503202042 52 306 15.6 24.3 0.00 0.00 0.00 42 999.0
20260503201142 52 304 18.2 25.2 0.00 0.00 0.00 43 999.1
20260503200242 52 301 16.5 26.1 0.00 0.00 0.00 45 999.2
20260503195342 51 299 18.2 28.7 0.00 0.00 0.00 46 999.2